Regional Weather Roundup
Issued by NWS Charleston, SC

Home | Current Version | Previous Version | Text Only | Print | Product List | Glossary On
Versions: 1 2 3 4 5 6 7 8 9 10 11 12 13 14 15 16 17 18 19 20 21 22 23 24 25 26 27 28 29 30 31 32 33 34 35 36 37 38 39 40 41 42 43 44 45 46 47 48 49 50
000
ASUS42 KCHS 312225
RWRCHS

REGIONAL WEATHER ROUNDUP
NATIONAL WEATHER SERVICE CHARLESTON SC
600 PM EDT THU JUL 31 2014

NOTE: "FAIR" INDICATES FEW OR NO CLOUDS BELOW 12,000 FEET WITH NO
SIGNIFICANT WEATHER AND/OR OBSTRUCTIONS TO VISIBILITY.

NOT ALL STATIONS ARE QUALITY CONTROLLED BY THE NATIONAL
WEATHER SERVICE. USE DATA WITH CAUTION...ESPECIALLY
DEWPOINT OBSERVATIONS.

SCZ027-030-031-034>040-042>050-312300-
...SOUTH CAROLINA...

CITY           SKY/WX    TMP DP  RH WIND       PRES   REMARKS
N CHARLESTON   CLOUDY    80  73  79 NE6       30.02F
WATERFRONT PRK   N/A     79 N/A N/A N8          N/A
FORT JOHNSON   NOT AVBL
MOUNT PLEASANT FAIR      79  73  83 E8        30.02S HAZE
JOHNS ISLAND   PTCLDY    79  72  78 CALM      30.02S
PINOPOLIS        N/A     77  73  88 E7        29.95F
MONCKS CORNER  DRIZZLE   77  77 100 N5        30.03F
SUMMERVILLE    NOT AVBL
BEAUFORT MCAS  PTSUNNY   82  73  74 SE8       30.00S
BEAUFORT ARPT  FAIR      82  75  78 NE9       29.99S
HILTON HEAD IS MOSUNNY   84  73  70 E5        30.00S HX  91
GEORGETOWN     NOT AVBL
WALTERBORO     MOCLDY    79  77  94 E9        30.03S
ORANGEBURG     CLOUDY    77  70  79 E7        30.05R
BARNWELL       FAIR      81  70  69 E13       30.03R
AIKEN          CLOUDY    73  73 100 NE9       30.08S
MANNING        CLOUDY    75 N/A N/A NE3       30.06R
KINGSTREE      NOT AVBL
COLUMBIA       RAIN      73  69  87 NE9       30.06S FOG
SUMTER         LGT RAIN  71  70  98 NE12      30.07S
FLORENCE       LGT RAIN  77  72  84 E5        30.08S
MYRTLE BEACH   PTSUNNY   82  70  65 E14       30.05F
N MYRTLE BEACH CLOUDY    82  70  66 E12G21    30.06S

$$

GAZ063-065-086>088-099>101-113>116-118-119-134-136>141-150-312300-
...GEORGIA...

CITY           SKY/WX    TMP DP  RH WIND       PRES   REMARKS
SAVANNAH ARPT  TSTM      79  75  87 NE7       29.99R FOG
HUNTER AAF     PTSUNNY   82  75  80 W16       29.97R THUNDER
FORT STEWART   PTSUNNY   86  74  67 N9        29.96R HX  93
STATESBORO     NOT AVBL
SYLVANIA       CLOUDY    79  76  92 E5        30.01S
CLAXTON        MOCLDY    86  77  74 NE10      29.98R HX  97
THOMSON        CLOUDY    75  75 100 N5        30.09F
AUGUSTA-BUSH   PTSUNNY   77  71  82 N6        30.02F
AUGUSTA-DANIEL CLOUDY    75  70  84 N8        30.05S
SWAINSBORO     MOCLDY    84  75  74 E10       30.00S HX  92
VIDALIA          N/A     82  75  78 E10       29.97F
ALMA           MOSUNNY   94  56  27 SW8       29.95S HX  92
WAYCROSS       MOSUNNY   95  63  34 W5        29.95S HX  97
JESUP          FAIR      95  63  34 SW6       29.95S HX  96
BRUNSWICK      SUNNY     90  64  43 SE9       29.97S HX  91
SAINT SIMONS   MOSUNNY   88  68  51 SE12      29.96F HX  91

$$

SCZ027-028-034-036>038-045-046-048>050-GAZ119-141-312300-
...LAKE AND SUPPLEMENTAL COASTAL OBSERVATIONS...

STATION/POSITION TIME  TEMP    WIND        PRES    WAVE   SWELL
                       AIR SEA DIR/SP/G            HT/PER HT/PER/DIR
                 (UTC) (F)     (DEG/KT/KT) (MB)    (FT/S) (FT/S/D)
UPR LAKE MARION  NOT AVBL
WINYAH BAY       2200   82      90/ 13     1017.0S
LAKE MURRAY      2100   72     130/  5/ 11 1017.9R
ACE BASIN NERRS  2200   81      60/  5     1016.0S
FORT PULASKI     2200   84     110/  6/  7 1015.6R
SAPELO ISLAND    2200   90     150/  9     1016.0S

$$

ANZ835-935-AMZ111-154-330-350-352-354-374-450-454-472-312300-
...C-MAN AND BUOY OBSERVATIONS...

STATION/POSITION TIME  TEMP    WIND        PRES    WAVE   SWELL
                       AIR SEA DIR/SP/G            HT/PER HT/PER/DIR
                 (UTC) (F)     (DEG/KT/KT) (MB)    (FT/S) (FT/S/D)
FOLLY BEACH CMAN 2200   80      90/ 14/ 16 1016.9R
BUOY 41004       2200   84 83  120/ 16/ 19 1015.4F   5/ 5   2/14
BUOY 41008       2200   85 86  140/ 12/ 14 1014.9F   2/ 8   2/100/ 8
5E ST. MARYS GA  2200      86                N/A     2/ 8
FRYING PAN BUOY  NOT AVBL
BUOY 41025       2200          VRB 12/ 16  1019.8S   3/ 6   3/110/ 6
CAPE LOOKOUT NC  2200   80      80/ 14/ 15 1019.4F
BUOY 41002       2113   80 81  190/  6/  8 1018.5F   3/ 6   3/ 80/ 6
BUOY 41010       2200   83 84  140/  6/  8 1016.1S   2/ 8   2/ 90/ 8
BUOY 41012       NOT AVBL
ST AUGUSTINE FL  2200   83     120/ 13/ 14 1015.6R
CAPERS NEARSHORE NOT AVBL
FRIPP NEARSHORE  NOT AVBL


$$



USA.gov is the U.S. government's official web portal to all federal, state and local government web resources and services.